Year,Month,Day,Hour,Minute,Value (Times are PST for temperature in C)
2020,10,01,00,00,14.30
2020,10,01,00,01,14.30
2020,10,01,00,02,14.30
2020,10,01,00,03,14.30
2020,10,01,00,04,14.30
2020,10,01,00,05,14.20
2020,10,01,00,06,14.20
2020,10,01,00,07,14.20
2020,10,01,00,08,14.20
2020,10,01,00,09,14.20
2020,10,01,00,10,14.10
2020,10,01,00,11,14.20
2020,10,01,00,12,14.10
2020,10,01,00,13,14.10
2020,10,01,00,14,14.10
2020,10,01,00,15,14.10
2020,10,01,00,16,14.10
2020,10,01,00,17,14.10
2020,10,01,00,18,14.10
2020,10,01,00,19,14.10
2020,10,01,00,20,14.10
2020,10,01,00,21,14.10
2020,10,01,00,22,14.10
2020,10,01,00,23,14.00
2020,10,01,00,24,14.00
2020,10,01,00,25,14.00
2020,10,01,00,26,14.00
2020,10,01,00,27,14.00
2020,10,01,00,28,14.00
2020,10,01,00,29,14.00
2020,10,01,00,30,14.00
2020,10,01,00,31,14.00
2020,10,01,00,32,14.00
2020,10,01,00,33,14.00
2020,10,01,00,34,14.00
2020,10,01,00,35,14.00
2020,10,01,00,36,14.00
2020,10,01,00,37,14.00
2020,10,01,00,38,14.00
2020,10,01,00,39,14.00
2020,10,01,00,40,14.00
2020,10,01,00,41,14.00
2020,10,01,00,42,14.00
2020,10,01,00,43,14.10
2020,10,01,00,44,14.10
2020,10,01,00,45,14.10
2020,10,01,00,46,14.10
2020,10,01,00,47,14.10
2020,10,01,00,48,14.10
2020,10,01,00,49,14.10
2020,10,01,00,50,14.10
2020,10,01,00,51,14.10
2020,10,01,00,52,14.10
2020,10,01,00,53,14.10
2020,10,01,00,54,14.20
2020,10,01,00,55,14.20
2020,10,01,00,56,14.20
2020,10,01,00,57,14.20
2020,10,01,00,58,14.20
2020,10,01,00,59,14.20
2020,10,01,01,00,14.20
2020,10,01,01,01,14.20
2020,10,01,01,02,14.20
2020,10,01,01,03,14.20
2020,10,01,01,04,14.20
2020,10,01,01,05,14.20
2020,10,01,01,06,14.20
2020,10,01,01,07,14.20
2020,10,01,01,08,14.10
2020,10,01,01,09,14.10
2020,10,01,01,10,14.10
2020,10,01,01,11,14.10
2020,10,01,01,12,14.10
2020,10,01,01,13,14.10
2020,10,01,01,14,14.10
2020,10,01,01,15,14.00
2020,10,01,01,16,14.00
2020,10,01,01,17,14.00
2020,10,01,01,18,14.00
2020,10,01,01,19,14.00
2020,10,01,01,20,13.90
2020,10,01,01,21,13.90
2020,10,01,01,22,13.90
2020,10,01,01,23,13.90
2020,10,01,01,24,13.90
2020,10,01,01,25,13.90
2020,10,01,01,26,13.90
2020,10,01,01,27,13.90
2020,10,01,01,28,13.90
2020,10,01,01,29,13.90
2020,10,01,01,30,13.90
2020,10,01,01,31,13.90
2020,10,01,01,32,13.90
2020,10,01,01,33,13.90
2020,10,01,01,34,13.90
2020,10,01,01,35,13.90
2020,10,01,01,36,13.90
2020,10,01,01,37,13.80
2020,10,01,01,38,13.80
2020,10,01,01,39,13.80
2020,10,01,01,40,13.80
2020,10,01,01,41,13.80
2020,10,01,01,42,13.80
2020,10,01,01,43,13.80
2020,10,01,01,44,13.80
2020,10,01,01,45,13.80
2020,10,01,01,46,13.70
2020,10,01,01,47,13.70
2020,10,01,01,48,13.70
2020,10,01,01,49,13.70
2020,10,01,01,50,13.70
2020,10,01,01,51,13.70
2020,10,01,01,52,13.70
2020,10,01,01,53,13.70
2020,10,01,01,54,13.70
2020,10,01,01,55,13.70
2020,10,01,01,56,13.70
2020,10,01,01,57,13.70
2020,10,01,01,58,13.70
2020,10,01,01,59,13.70
2020,10,01,02,00,13.60
2020,10,01,02,01,13.60
2020,10,01,02,02,13.60
2020,10,01,02,03,13.60
2020,10,01,02,04,13.60
2020,10,01,02,05,13.60
2020,10,01,02,06,13.60
2020,10,01,02,07,13.70
2020,10,01,02,08,13.70
2020,10,01,02,09,13.70
2020,10,01,02,10,13.70
2020,10,01,02,11,13.70
2020,10,01,02,12,13.70
2020,10,01,02,13,13.80
2020,10,01,02,14,13.80
2020,10,01,02,15,13.80
2020,10,01,02,16,13.80
2020,10,01,02,17,13.90
2020,10,01,02,18,13.90
2020,10,01,02,19,13.90
2020,10,01,02,20,14.00
2020,10,01,02,21,14.00
2020,10,01,02,22,14.00
2020,10,01,02,23,14.00
2020,10,01,02,24,14.00
2020,10,01,02,25,14.00
2020,10,01,02,26,14.00
2020,10,01,02,27,14.10
2020,10,01,02,28,14.10
2020,10,01,02,29,14.10
2020,10,01,02,30,14.10
2020,10,01,02,31,14.10
2020,10,01,02,32,14.10
2020,10,01,02,33,14.10
2020,10,01,02,34,14.10
2020,10,01,02,35,14.10
2020,10,01,02,36,14.10
2020,10,01,02,37,14.00
2020,10,01,02,38,14.00
2020,10,01,02,39,14.00
2020,10,01,02,40,14.00
2020,10,01,02,41,14.00
2020,10,01,02,42,14.00
2020,10,01,02,43,13.90
2020,10,01,02,44,13.90
2020,10,01,02,45,13.90
2020,10,01,02,46,13.90
2020,10,01,02,47,13.90
2020,10,01,02,48,13.90
2020,10,01,02,49,13.90
2020,10,01,02,50,13.90
2020,10,01,02,51,13.80
2020,10,01,02,52,13.80
2020,10,01,02,53,13.80
2020,10,01,02,54,13.80
2020,10,01,02,55,13.80
2020,10,01,02,56,13.80
2020,10,01,02,57,13.80
2020,10,01,02,58,13.80
2020,10,01,02,59,13.80
2020,10,01,03,00,13.80
2020,10,01,03,01,13.80
2020,10,01,03,02,13.80
2020,10,01,03,03,13.80
2020,10,01,03,04,13.80
2020,10,01,03,05,13.80
2020,10,01,03,06,13.80
2020,10,01,03,07,13.80
2020,10,01,03,08,13.80
2020,10,01,03,09,13.80
2020,10,01,03,10,13.80
2020,10,01,03,11,13.70
2020,10,01,03,12,13.70
2020,10,01,03,13,13.70
2020,10,01,03,14,13.60
2020,10,01,03,15,13.60
2020,10,01,03,16,13.60
2020,10,01,03,17,13.50
2020,10,01,03,18,13.50
2020,10,01,03,19,13.50
2020,10,01,03,20,13.40
2020,10,01,03,21,13.40
2020,10,01,03,22,13.40
2020,10,01,03,23,13.40
2020,10,01,03,24,13.30
2020,10,01,03,25,13.30
2020,10,01,03,26,13.20
2020,10,01,03,27,13.20
2020,10,01,03,28,13.20
2020,10,01,03,29,13.10
2020,10,01,03,30,13.10
2020,10,01,03,31,13.10
2020,10,01,03,32,13.10
2020,10,01,03,33,13.00
2020,10,01,03,34,13.00
2020,10,01,03,35,13.00
2020,10,01,03,36,12.90
2020,10,01,03,37,12.90
2020,10,01,03,38,12.90
2020,10,01,03,39,12.90
2020,10,01,03,40,12.90
2020,10,01,03,41,12.90
2020,10,01,03,42,12.80
2020,10,01,03,43,12.80
2020,10,01,03,44,12.80
2020,10,01,03,45,12.80
2020,10,01,03,46,12.80
2020,10,01,03,47,12.80
2020,10,01,03,48,12.80
2020,10,01,03,49,12.70
2020,10,01,03,50,12.70
2020,10,01,03,51,12.70
2020,10,01,03,52,12.70
2020,10,01,03,53,12.70
2020,10,01,03,54,12.70
2020,10,01,03,55,12.70
2020,10,01,03,56,12.70
2020,10,01,03,57,12.70
2020,10,01,03,58,12.70
2020,10,01,03,59,12.60
2020,10,01,04,00,12.60
2020,10,01,04,01,12.60
2020,10,01,04,02,12.60
2020,10,01,04,03,12.50
2020,10,01,04,04,12.50
2020,10,01,04,08,12.50
2020,10,01,04,09,12.50
2020,10,01,04,10,12.50
2020,10,01,04,11,12.50
2020,10,01,04,12,12.50
2020,10,01,04,13,12.50
2020,10,01,04,14,12.50
2020,10,01,04,15,12.50
2020,10,01,04,16,12.40
2020,10,01,04,17,12.50
2020,10,01,04,18,12.50
2020,10,01,04,19,12.50
2020,10,01,04,20,12.50
2020,10,01,04,21,12.50
2020,10,01,04,22,12.50
2020,10,01,04,23,12.50
2020,10,01,04,24,12.50
2020,10,01,04,25,12.50
2020,10,01,04,26,12.40
2020,10,01,04,27,12.40
2020,10,01,04,28,12.40
2020,10,01,04,29,12.40
2020,10,01,04,30,12.40
2020,10,01,04,31,12.40
2020,10,01,04,32,12.40
2020,10,01,04,33,12.40
2020,10,01,04,34,12.40
2020,10,01,04,35,12.40
2020,10,01,04,36,12.40
2020,10,01,04,37,12.40
2020,10,01,04,38,12.40
2020,10,01,04,39,12.40
2020,10,01,04,40,12.40
2020,10,01,04,41,12.40
2020,10,01,04,42,12.40
2020,10,01,04,43,12.30
2020,10,01,04,44,12.30
2020,10,01,04,45,12.30
2020,10,01,04,46,12.30
2020,10,01,04,47,12.30
2020,10,01,04,48,12.30
2020,10,01,04,49,12.30
2020,10,01,04,50,12.30
2020,10,01,04,51,12.30
2020,10,01,04,52,12.30
2020,10,01,04,53,12.30
2020,10,01,04,54,12.30
2020,10,01,04,55,12.30
2020,10,01,04,56,12.30
2020,10,01,04,57,12.30
2020,10,01,04,58,12.30
2020,10,01,04,59,12.30
2020,10,01,05,00,12.30
2020,10,01,05,01,12.30
2020,10,01,05,02,12.30
2020,10,01,05,03,12.30
2020,10,01,05,04,12.30
2020,10,01,05,05,12.30
2020,10,01,05,06,12.30
2020,10,01,05,07,12.40
2020,10,01,05,08,12.40
2020,10,01,05,09,12.40
2020,10,01,05,10,12.40
2020,10,01,05,11,12.40
2020,10,01,05,12,12.50
2020,10,01,05,13,12.50
2020,10,01,05,14,12.50
2020,10,01,05,15,12.50
2020,10,01,05,16,12.40
2020,10,01,05,17,12.40
2020,10,01,05,18,12.40
2020,10,01,05,19,12.40
2020,10,01,05,20,12.40
2020,10,01,05,21,12.40
2020,10,01,05,22,12.40
2020,10,01,05,23,12.30
2020,10,01,05,24,12.30
2020,10,01,05,25,12.30
2020,10,01,05,26,12.30
2020,10,01,05,27,12.20
2020,10,01,05,28,12.20
2020,10,01,05,29,12.30
2020,10,01,05,30,12.30
2020,10,01,05,31,12.30
2020,10,01,05,32,12.30
2020,10,01,05,33,12.30
2020,10,01,05,34,12.30
2020,10,01,05,35,12.30
2020,10,01,05,36,12.30
2020,10,01,05,37,12.20
2020,10,01,05,38,12.20
2020,10,01,05,39,12.20
2020,10,01,05,40,12.20
2020,10,01,05,41,12.20
2020,10,01,05,42,12.20
2020,10,01,05,43,12.20
2020,10,01,05,44,12.20
2020,10,01,05,45,12.20
2020,10,01,05,46,12.20
2020,10,01,05,47,12.30
2020,10,01,05,48,12.30
2020,10,01,05,49,12.30
2020,10,01,05,50,12.30
2020,10,01,05,51,12.20
2020,10,01,05,52,12.20
2020,10,01,05,53,12.20
2020,10,01,05,54,12.10
2020,10,01,05,55,12.10
2020,10,01,05,56,12.10
2020,10,01,05,57,12.10
2020,10,01,05,58,12.10
2020,10,01,05,59,12.10
2020,10,01,06,00,12.10
2020,10,01,06,01,12.00
2020,10,01,06,02,12.00
2020,10,01,06,03,12.00
2020,10,01,06,04,12.00
2020,10,01,06,05,12.00
2020,10,01,06,06,12.00
2020,10,01,06,07,12.00
2020,10,01,06,08,12.10
2020,10,01,06,09,12.00
2020,10,01,06,10,12.00
2020,10,01,06,11,11.90
2020,10,01,06,12,11.90
2020,10,01,06,13,11.90
2020,10,01,06,14,11.90
2020,10,01,06,15,11.90
2020,10,01,06,16,11.90
2020,10,01,06,17,11.90
2020,10,01,06,18,11.90
2020,10,01,06,19,11.90
2020,10,01,06,20,11.90
2020,10,01,06,21,11.90
2020,10,01,06,22,11.90
2020,10,01,06,23,12.00
2020,10,01,06,24,12.00
2020,10,01,06,25,12.00
2020,10,01,06,26,12.00
2020,10,01,06,27,12.00
2020,10,01,06,28,12.00
2020,10,01,06,29,12.00
2020,10,01,06,30,12.00
2020,10,01,06,31,11.90
2020,10,01,06,32,11.90
2020,10,01,06,33,11.90
2020,10,01,06,34,11.90
2020,10,01,06,35,11.90
2020,10,01,06,36,11.90
2020,10,01,06,37,11.90
2020,10,01,06,38,11.90
2020,10,01,06,39,11.90
2020,10,01,06,40,11.90
2020,10,01,06,41,12.00
2020,10,01,06,42,12.00
2020,10,01,06,43,12.00
2020,10,01,06,44,12.00
2020,10,01,06,45,12.00
2020,10,01,06,46,12.00
2020,10,01,06,47,12.10
2020,10,01,06,48,12.10
2020,10,01,06,49,12.00
2020,10,01,06,50,12.00
2020,10,01,06,51,12.00
2020,10,01,06,52,12.00
2020,10,01,06,53,12.00
2020,10,01,06,54,12.00
2020,10,01,06,55,12.00
2020,10,01,06,56,12.00
2020,10,01,06,57,12.00
2020,10,01,06,58,12.00
2020,10,01,06,59,12.00
2020,10,01,07,00,12.00
2020,10,01,07,01,11.90
2020,10,01,07,02,11.90
2020,10,01,07,03,11.90
2020,10,01,07,04,11.90
2020,10,01,07,05,11.90
2020,10,01,07,06,11.90
2020,10,01,07,07,11.90
2020,10,01,07,08,11.90
2020,10,01,07,09,11.90
2020,10,01,07,10,11.80
2020,10,01,07,11,11.80
2020,10,01,07,12,11.80
2020,10,01,07,13,11.80
2020,10,01,07,14,11.80
2020,10,01,07,15,11.80
2020,10,01,07,16,11.80
2020,10,01,07,17,11.80
2020,10,01,07,18,11.80
2020,10,01,07,19,11.80
2020,10,01,07,20,11.80
2020,10,01,07,21,11.80
2020,10,01,07,22,11.80
2020,10,01,07,23,11.80
2020,10,01,07,24,11.80
2020,10,01,07,25,11.80
2020,10,01,07,26,11.80
2020,10,01,07,27,11.80
2020,10,01,07,28,11.80
2020,10,01,07,29,11.80
2020,10,01,07,30,11.80
2020,10,01,07,31,11.80
2020,10,01,07,32,11.90
2020,10,01,07,33,11.90
2020,10,01,07,34,11.90
2020,10,01,07,35,11.90
2020,10,01,07,36,11.90
2020,10,01,07,37,11.90
2020,10,01,07,38,11.90
2020,10,01,07,39,11.90
2020,10,01,07,40,11.80
2020,10,01,07,41,11.80
2020,10,01,07,42,11.80
2020,10,01,07,43,11.80
2020,10,01,07,44,11.80
2020,10,01,07,45,11.80
2020,10,01,07,46,11.80
2020,10,01,07,47,11.90
2020,10,01,07,48,11.90
2020,10,01,07,49,11.90
2020,10,01,07,50,11.90
2020,10,01,07,51,11.90
2020,10,01,07,52,11.90
2020,10,01,07,53,11.90
2020,10,01,07,54,12.00
2020,10,01,07,55,12.00
2020,10,01,07,56,12.00
2020,10,01,07,57,12.00
2020,10,01,07,58,12.10
2020,10,01,07,59,12.10
2020,10,01,08,00,12.10
2020,10,01,08,01,12.10
2020,10,01,08,02,12.10
2020,10,01,08,03,12.10
2020,10,01,08,04,12.10
2020,10,01,08,05,12.10
2020,10,01,08,06,12.20
2020,10,01,08,07,12.20
2020,10,01,08,08,12.20
2020,10,01,08,09,12.20
2020,10,01,08,10,12.20
2020,10,01,08,11,12.20
2020,10,01,08,12,12.20
2020,10,01,08,13,12.20
2020,10,01,08,14,12.20
2020,10,01,08,15,12.20
2020,10,01,08,16,12.30
2020,10,01,08,17,12.30
2020,10,01,08,18,12.30
2020,10,01,08,19,12.30
2020,10,01,08,20,12.30
2020,10,01,08,21,12.40
2020,10,01,08,22,12.40
2020,10,01,08,23,12.40
2020,10,01,08,24,12.40
2020,10,01,08,25,12.40
2020,10,01,08,26,12.40
2020,10,01,08,27,12.50
2020,10,01,08,28,12.50
2020,10,01,08,29,12.50
2020,10,01,08,30,12.60
2020,10,01,08,31,12.60
2020,10,01,08,32,12.70
2020,10,01,08,33,12.70
2020,10,01,08,34,12.70
2020,10,01,08,35,12.80
2020,10,01,08,36,12.90
2020,10,01,08,37,12.90
2020,10,01,08,38,13.00
2020,10,01,08,39,13.00
2020,10,01,08,40,13.10
2020,10,01,08,41,13.20
2020,10,01,08,42,13.20
2020,10,01,08,43,13.30
2020,10,01,08,44,13.30
2020,10,01,08,45,13.40
2020,10,01,08,46,13.50
2020,10,01,08,47,13.50
2020,10,01,08,48,13.60
2020,10,01,08,49,13.60
2020,10,01,08,50,13.60
2020,10,01,08,51,13.70
2020,10,01,08,52,13.70
2020,10,01,08,53,13.70
2020,10,01,08,54,13.80
2020,10,01,08,55,13.80
2020,10,01,08,56,13.80
2020,10,01,08,57,13.90
2020,10,01,08,58,13.90
2020,10,01,08,59,14.00
2020,10,01,09,00,14.00
2020,10,01,09,01,14.10
2020,10,01,09,02,14.10
2020,10,01,09,03,14.10
2020,10,01,09,04,14.10
2020,10,01,09,05,14.10
2020,10,01,09,06,14.10
2020,10,01,09,07,14.10
2020,10,01,09,08,14.10
2020,10,01,09,09,14.20
2020,10,01,09,10,14.20
2020,10,01,09,11,14.20
2020,10,01,09,12,14.20
2020,10,01,09,13,14.20
2020,10,01,09,14,14.20
2020,10,01,09,15,14.30
2020,10,01,09,16,14.30
2020,10,01,09,17,14.30
2020,10,01,09,18,14.40
2020,10,01,09,19,14.40
2020,10,01,09,20,14.40
2020,10,01,09,21,14.50
2020,10,01,09,22,14.50
2020,10,01,09,23,14.60
2020,10,01,09,24,14.60
2020,10,01,09,25,14.60
2020,10,01,09,26,14.70
2020,10,01,09,27,14.70
2020,10,01,09,28,14.70
2020,10,01,09,29,14.70
2020,10,01,09,30,14.80
2020,10,01,09,31,14.80
2020,10,01,09,32,14.80
2020,10,01,09,33,14.90
2020,10,01,09,34,14.90
2020,10,01,09,35,15.00
2020,10,01,09,36,15.00
2020,10,01,09,37,15.00
2020,10,01,09,38,15.10
2020,10,01,09,39,15.10
2020,10,01,09,40,15.20
2020,10,01,09,41,15.20
2020,10,01,09,42,15.20
2020,10,01,09,43,15.30
2020,10,01,09,44,15.30
2020,10,01,09,45,15.30
2020,10,01,09,46,15.40
2020,10,01,09,47,15.40
2020,10,01,09,48,15.40
2020,10,01,09,49,15.40
2020,10,01,09,50,15.40
2020,10,01,09,51,15.50
2020,10,01,09,52,15.50
2020,10,01,09,53,15.50
2020,10,01,09,54,15.50
2020,10,01,09,55,15.50
2020,10,01,09,56,15.60
2020,10,01,09,57,15.60
2020,10,01,09,58,15.60
2020,10,01,09,59,15.60
2020,10,01,10,00,15.60
2020,10,01,10,01,15.50
2020,10,01,10,02,15.50
2020,10,01,10,03,15.40
2020,10,01,10,04,15.40
2020,10,01,10,05,15.40
2020,10,01,10,06,15.40
2020,10,01,10,07,15.30
2020,10,01,10,08,15.30
2020,10,01,10,09,15.30
2020,10,01,10,10,15.30
2020,10,01,10,11,15.30
2020,10,01,10,12,15.30
2020,10,01,10,13,15.30
2020,10,01,10,14,15.30
2020,10,01,10,15,15.40
2020,10,01,10,16,15.40
2020,10,01,10,17,15.40
2020,10,01,10,18,15.40
2020,10,01,10,19,15.50
2020,10,01,10,20,15.50
2020,10,01,10,21,15.60
2020,10,01,10,22,15.60
2020,10,01,10,23,15.60
2020,10,01,10,24,15.70
2020,10,01,10,25,15.70
2020,10,01,10,26,15.80
2020,10,01,10,27,15.80
2020,10,01,10,28,15.90
2020,10,01,10,29,15.90
2020,10,01,10,30,15.90
2020,10,01,10,31,16.00
2020,10,01,10,32,16.10
2020,10,01,10,33,16.10
2020,10,01,10,34,16.10
2020,10,01,10,35,16.20
2020,10,01,10,36,16.20
2020,10,01,10,37,16.30
2020,10,01,10,38,16.30
2020,10,01,10,39,16.40
2020,10,01,10,40,16.40
2020,10,01,10,41,16.40
2020,10,01,10,42,16.50
2020,10,01,10,43,16.50
2020,10,01,10,44,16.50
2020,10,01,10,45,16.60
2020,10,01,10,46,16.60
2020,10,01,10,47,16.60
2020,10,01,10,48,16.60
2020,10,01,10,49,16.70
2020,10,01,10,50,16.70
2020,10,01,10,51,16.70
2020,10,01,10,52,16.70
2020,10,01,10,53,16.80
2020,10,01,10,54,16.80
2020,10,01,10,55,16.80
2020,10,01,10,56,16.80
2020,10,01,10,57,16.90
2020,10,01,10,58,16.90
2020,10,01,10,59,17.00
2020,10,01,11,00,17.00
2020,10,01,11,01,17.10
2020,10,01,11,02,17.10
2020,10,01,11,03,17.20
2020,10,01,11,04,17.30
2020,10,01,11,05,17.30
2020,10,01,11,06,17.30
2020,10,01,11,07,17.40
2020,10,01,11,08,17.40
2020,10,01,11,09,17.40
2020,10,01,11,10,17.50
2020,10,01,11,11,17.60
2020,10,01,11,12,17.60
2020,10,01,11,13,17.70
2020,10,01,11,14,17.70
2020,10,01,11,15,17.80
2020,10,01,11,16,17.80
2020,10,01,11,17,17.90
2020,10,01,11,18,18.00
2020,10,01,11,19,18.00
2020,10,01,11,20,18.10
2020,10,01,11,21,18.10
2020,10,01,11,22,18.20
2020,10,01,11,23,18.20
2020,10,01,11,24,18.20
2020,10,01,11,25,18.20
2020,10,01,11,26,18.20
2020,10,01,11,27,18.10
2020,10,01,11,28,18.10
2020,10,01,11,29,18.10
2020,10,01,11,30,18.10
2020,10,01,11,31,18.10
2020,10,01,11,32,18.10
2020,10,01,11,33,18.10
2020,10,01,11,34,18.00
2020,10,01,11,35,17.90
2020,10,01,11,36,17.90
2020,10,01,11,37,17.90
2020,10,01,11,38,17.90
2020,10,01,11,39,17.90
2020,10,01,11,40,17.90
2020,10,01,11,41,17.90
2020,10,01,11,42,18.00
2020,10,01,11,43,18.00
2020,10,01,11,44,18.00
2020,10,01,11,45,18.00
2020,10,01,11,46,18.00
2020,10,01,11,47,18.00
2020,10,01,11,48,18.10
2020,10,01,11,49,18.10
2020,10,01,11,50,18.10
2020,10,01,11,51,18.20
2020,10,01,11,52,18.20
2020,10,01,11,53,18.30
2020,10,01,11,54,18.30
2020,10,01,11,55,18.40
2020,10,01,11,56,18.40
2020,10,01,11,57,18.50
2020,10,01,11,58,18.50
2020,10,01,11,59,18.60
2020,10,01,12,00,18.60
2020,10,01,12,01,18.70
2020,10,01,12,02,18.70
2020,10,01,12,03,18.70
2020,10,01,12,04,18.80
2020,10,01,12,05,18.80
2020,10,01,12,06,18.80
2020,10,01,12,07,18.80
2020,10,01,12,08,18.80
2020,10,01,12,09,18.80
2020,10,01,12,10,18.80
2020,10,01,12,11,18.80
2020,10,01,12,12,18.90
2020,10,01,12,13,18.90
2020,10,01,12,14,18.90
2020,10,01,12,15,18.90
2020,10,01,12,16,18.90
2020,10,01,12,17,19.00
2020,10,01,12,18,19.00
2020,10,01,12,19,19.10
2020,10,01,12,20,19.10
2020,10,01,12,21,19.10
2020,10,01,12,22,19.20
2020,10,01,12,23,19.30
2020,10,01,12,24,19.30
2020,10,01,12,25,19.40
2020,10,01,12,26,19.40
2020,10,01,12,27,19.50
2020,10,01,12,28,19.60
2020,10,01,12,29,19.70
2020,10,01,12,30,19.70
2020,10,01,12,31,19.80
2020,10,01,12,32,19.90
2020,10,01,12,33,19.90
2020,10,01,12,34,19.90
2020,10,01,12,35,19.80
2020,10,01,12,36,19.80
2020,10,01,12,37,19.70
2020,10,01,12,38,19.60
2020,10,01,12,39,19.50
2020,10,01,12,40,19.50
2020,10,01,12,41,19.40
2020,10,01,12,42,19.40
2020,10,01,12,43,19.40
2020,10,01,12,44,19.40
2020,10,01,12,45,19.50
2020,10,01,12,46,19.50
2020,10,01,12,47,19.40
2020,10,01,12,48,19.40
2020,10,01,12,49,19.40
2020,10,01,12,50,19.30
2020,10,01,12,51,19.30
2020,10,01,12,52,19.30
2020,10,01,12,53,19.30
2020,10,01,12,54,19.20
2020,10,01,12,55,19.20
2020,10,01,12,56,19.20
2020,10,01,12,57,19.30
2020,10,01,12,58,19.30
2020,10,01,12,59,19.30
2020,10,01,13,00,19.40
2020,10,01,13,01,19.40
2020,10,01,13,02,19.40
2020,10,01,13,03,19.50
2020,10,01,13,04,19.50
2020,10,01,13,05,19.60
2020,10,01,13,06,19.60
2020,10,01,13,07,19.70
2020,10,01,13,08,19.70
2020,10,01,13,09,19.70
2020,10,01,13,10,19.70
2020,10,01,13,11,19.70
2020,10,01,13,12,19.70
2020,10,01,13,13,19.70
2020,10,01,13,14,19.70
2020,10,01,13,15,19.70
2020,10,01,13,16,19.80
2020,10,01,13,17,19.80
2020,10,01,13,18,19.80
2020,10,01,13,19,19.90
2020,10,01,13,20,19.90
2020,10,01,13,21,19.90
2020,10,01,13,22,19.90
2020,10,01,13,23,19.90
2020,10,01,13,24,19.90
2020,10,01,13,25,19.90
2020,10,01,13,26,19.90
2020,10,01,13,27,19.90
2020,10,01,13,28,19.90
2020,10,01,13,29,20.00
2020,10,01,13,30,20.00
2020,10,01,13,31,20.00
2020,10,01,13,32,20.00
2020,10,01,13,33,20.10
2020,10,01,13,34,20.10
2020,10,01,13,35,20.10
2020,10,01,13,36,20.10
2020,10,01,13,37,20.10
2020,10,01,13,38,20.00
2020,10,01,13,39,20.00
2020,10,01,13,40,20.00
2020,10,01,13,41,20.00
2020,10,01,13,42,20.00
2020,10,01,13,43,20.00
2020,10,01,13,44,20.00
2020,10,01,13,45,19.90
2020,10,01,13,46,19.90
2020,10,01,13,47,19.90
2020,10,01,13,48,19.90
2020,10,01,13,49,19.90
2020,10,01,13,50,20.00
2020,10,01,13,51,20.00
2020,10,01,13,52,20.10
2020,10,01,13,53,20.10
2020,10,01,13,54,20.20
2020,10,01,13,55,20.20
2020,10,01,13,56,20.30
2020,10,01,13,57,20.30
2020,10,01,13,58,20.40
2020,10,01,13,59,20.40
2020,10,01,14,00,20.40
2020,10,01,14,01,20.50
2020,10,01,14,02,20.60
2020,10,01,14,03,20.60
2020,10,01,14,04,20.60
2020,10,01,14,05,20.60
2020,10,01,14,06,20.60
2020,10,01,14,07,20.60
2020,10,01,14,08,20.60
2020,10,01,14,09,20.60
2020,10,01,14,10,20.60
2020,10,01,14,11,20.60
2020,10,01,14,12,20.70
2020,10,01,14,13,20.70
2020,10,01,14,14,20.70
2020,10,01,14,15,20.70
2020,10,01,14,16,20.80
2020,10,01,14,17,20.80
2020,10,01,14,18,20.70
2020,10,01,14,19,20.70
2020,10,01,14,20,20.60
2020,10,01,14,21,20.60
2020,10,01,14,22,20.50
2020,10,01,14,23,20.40
2020,10,01,14,24,20.30
2020,10,01,14,25,20.30
2020,10,01,14,26,20.40
2020,10,01,14,27,20.40
2020,10,01,14,28,20.40
2020,10,01,14,29,20.50
2020,10,01,14,30,20.60
2020,10,01,14,31,20.60
2020,10,01,14,32,20.70
2020,10,01,14,33,20.70
2020,10,01,14,34,20.80
2020,10,01,14,35,20.90
2020,10,01,14,36,20.90
2020,10,01,14,37,20.90
2020,10,01,14,38,20.90
2020,10,01,14,39,21.00
2020,10,01,14,40,21.00
2020,10,01,14,41,21.00
2020,10,01,14,42,21.00
2020,10,01,14,43,21.00
2020,10,01,14,44,21.10
2020,10,01,14,45,21.10
2020,10,01,14,46,21.10
2020,10,01,14,47,21.10
2020,10,01,14,48,21.10
2020,10,01,14,49,21.20
2020,10,01,14,50,21.20
2020,10,01,14,51,21.20
2020,10,01,14,52,21.30
2020,10,01,14,53,21.30
2020,10,01,14,54,21.40
2020,10,01,14,55,21.40
2020,10,01,14,56,21.40
2020,10,01,14,57,21.40
2020,10,01,14,58,21.40
2020,10,01,14,59,21.40
2020,10,01,15,00,21.40
2020,10,01,15,01,21.40
2020,10,01,15,02,21.50
2020,10,01,15,03,21.50
2020,10,01,15,04,21.50
2020,10,01,15,05,21.40
2020,10,01,15,06,21.30
2020,10,01,15,07,21.10
2020,10,01,15,08,21.00
2020,10,01,15,09,20.80
2020,10,01,15,10,20.70
2020,10,01,15,11,20.60
2020,10,01,15,12,20.50
2020,10,01,15,13,20.40
2020,10,01,15,14,20.40
2020,10,01,15,15,20.40
2020,10,01,15,16,20.40
2020,10,01,15,17,20.40
2020,10,01,15,18,20.50
2020,10,01,15,19,20.50
2020,10,01,15,20,20.60
2020,10,01,15,21,20.70
2020,10,01,15,22,20.70
2020,10,01,15,23,20.80
2020,10,01,15,24,20.80
2020,10,01,15,25,20.80
2020,10,01,15,26,20.80
2020,10,01,15,27,20.80
2020,10,01,15,28,20.80
2020,10,01,15,29,20.80
2020,10,01,15,30,20.90
2020,10,01,15,31,20.90
2020,10,01,15,32,21.00
2020,10,01,15,33,21.00
2020,10,01,15,34,21.10
2020,10,01,15,35,21.10
2020,10,01,15,36,21.10
2020,10,01,15,37,21.20
2020,10,01,15,38,21.20
2020,10,01,15,39,21.20
2020,10,01,15,40,21.20
2020,10,01,15,41,21.10
2020,10,01,15,42,21.10
2020,10,01,15,43,21.10
2020,10,01,15,44,21.10
2020,10,01,15,45,21.10
2020,10,01,15,46,21.00
2020,10,01,15,47,20.90
2020,10,01,15,48,20.90
2020,10,01,15,49,20.80
2020,10,01,15,50,20.70
2020,10,01,15,51,20.70
2020,10,01,15,52,20.60
2020,10,01,15,53,20.60
2020,10,01,15,54,20.60
2020,10,01,15,55,20.50
2020,10,01,15,56,20.50
2020,10,01,15,57,20.60
2020,10,01,15,58,20.60
2020,10,01,15,59,20.50
2020,10,01,16,00,20.50
2020,10,01,16,01,20.40
2020,10,01,16,02,20.40
2020,10,01,16,03,20.40
2020,10,01,16,04,20.30
2020,10,01,16,05,20.30
2020,10,01,16,06,20.30
2020,10,01,16,07,20.40
2020,10,01,16,08,20.40
2020,10,01,16,09,20.40
2020,10,01,16,10,20.30
2020,10,01,16,11,20.30
2020,10,01,16,12,20.30
2020,10,01,16,13,20.20
2020,10,01,16,14,20.20
2020,10,01,16,15,20.10
2020,10,01,16,16,20.10
2020,10,01,16,17,20.00
2020,10,01,16,18,20.00
2020,10,01,16,19,19.90
2020,10,01,16,20,19.90
2020,10,01,16,21,19.90
2020,10,01,16,22,19.90
2020,10,01,16,23,19.90
2020,10,01,16,24,19.90
2020,10,01,16,25,19.90
2020,10,01,16,26,19.90
2020,10,01,16,27,19.90
2020,10,01,16,28,19.90
2020,10,01,16,29,19.90
2020,10,01,16,30,20.00
2020,10,01,16,31,20.00
2020,10,01,16,32,20.00
2020,10,01,16,33,20.00
2020,10,01,16,34,20.10
2020,10,01,16,35,20.10
2020,10,01,16,36,20.10
2020,10,01,16,37,20.10
2020,10,01,16,38,20.10
2020,10,01,16,39,20.10
2020,10,01,16,40,20.10
2020,10,01,16,41,20.10
2020,10,01,16,42,20.10
2020,10,01,16,43,20.10
2020,10,01,16,44,20.10
2020,10,01,16,45,20.10
2020,10,01,16,46,20.20
2020,10,01,16,47,20.20
2020,10,01,16,48,20.20
2020,10,01,16,49,20.20
2020,10,01,16,50,20.20
2020,10,01,16,51,20.20
2020,10,01,16,52,20.20
2020,10,01,16,53,20.20
2020,10,01,16,54,20.20
2020,10,01,16,55,20.20
2020,10,01,16,56,20.20
2020,10,01,16,57,20.20
2020,10,01,16,58,20.20
2020,10,01,16,59,20.10
2020,10,01,17,00,20.10
2020,10,01,17,01,20.10
2020,10,01,17,02,20.10
2020,10,01,17,03,20.00
2020,10,01,17,04,20.00
2020,10,01,17,05,20.00
2020,10,01,17,06,20.00
2020,10,01,17,07,19.90
2020,10,01,17,08,19.90
2020,10,01,17,09,19.90
2020,10,01,17,10,19.80
2020,10,01,17,11,19.80
2020,10,01,17,12,19.80
2020,10,01,17,13,19.80
2020,10,01,17,14,19.70
2020,10,01,17,15,19.70
2020,10,01,17,16,19.70
2020,10,01,17,17,19.70
2020,10,01,17,18,19.60
2020,10,01,17,19,19.60
2020,10,01,17,20,19.60
2020,10,01,17,21,19.60
2020,10,01,17,22,19.60